Flag for Spain Weather past 2 weeks in Almería, Spain

Now
64 °F

Mild.


Feels Like: 64 °F
Forecast: 53 / 71 °F
Wind: 6 mph from South

Location: Almeria / Aeropuerto

Current Time: Mar 27, 2015 at 1:17:50 PM

Latest Report: Mar 27, 2015 at 12:00 PM


Visibility: N/A

Pressure: 30.22 "Hg

Humidity: 74%

Dew point: 55 °F

Location of AlmeríaLocation

Historic Weather in Almería — Graph

°F

Almería temperature yesterday

Maximum temperature yesterday: 62 °F (at 1:00 PM)
Minimum temperature yesterday: 52 °F (at 7:00 AM)
Average temperature yesterday: 57 °F

Past Weeks' High & Low Weather Summary

 TemperatureHumidityPressure
High68 °F (Mar 13, 3:00 PM)97% (Mar 12, 11:00 PM)30.23 "Hg (Mar 12, 11:00 PM)
Low51 °F (Mar 13, 5:00 AM)29% (Mar 25, 4:00 PM)29.55 "Hg (Mar 24, 6:00 AM)
Average58 °F72%29.90 "Hg
* Reported Mar 12 12:00 Noon — Mar 27 12:00 Noon, Almería, Weather by CustomWeather, © 2015

Note: Actual official high and low records may vary slightly from our data, if they occured in-between our weather recording intervals... More about our weather records

Advertising

Almería weather history for previous 24 hours

 ConditionsComfort  
Time TempWeatherWind HumidityBarometerVisibility
12:00 PM
Fri, Mar 27
64 °FMild.6 mph74%30.22 "HgN/A
11:00 AM65 °FMild.2 mph66%30.22 "HgN/A
10:00 AM63 °FPassing clouds.2 mph68%30.23 "Hg31 mi
9:00 AM62 °FCool.1 mph60%30.21 "HgN/A
8:00 AM58 °FCool.3 mph76%30.20 "HgN/A
7:00 AM55 °FScattered clouds.6 mph78%30.18 "Hg28 mi
6:00 AM57 °FCool.No wind76%30.16 "HgN/A
5:00 AM58 °FCool.7 mph75%30.15 "HgN/A
4:00 AM58 °FCool.3 mph76%30.14 "HgN/A
3:00 AM58 °FCool.5 mph80%30.14 "HgN/A
2:00 AM57 °FCool.6 mph67%30.14 "HgN/A
1:00 AM55 °FCool.2 mph79%30.14 "HgN/A
12:00 AM54 °FCool.2 mph77%30.15 "HgN/A
11:00 PM
Thu, Mar 26
55 °FCool.No wind75%30.14 "HgN/A
9:00 PM56 °FCool.6 mph69%30.10 "HgN/A
8:00 PM57 °FCool.3 mph74%30.08 "HgN/A
7:00 PM59 °FPassing clouds.5 mph57%30.06 "Hg25 mi
6:00 PM60 °FCool.10 mph63%30.05 "HgN/A
5:00 PM61 °FRefreshingly cool.9 mph55%30.05 "HgN/A
4:00 PM61 °FPartly sunny.9 mph48%30.04 "Hg25 mi
3:00 PM62 °FRefreshingly cool.9 mph40%30.03 "HgN/A
2:00 PM62 °FRefreshingly cool.12 mph47%30.03 "HgN/A
1:00 PM62 °FPartly sunny.15 mph49%30.04 "Hg25 mi
Weather by CustomWeather, © 2015

See weather overviewHow to use our weather pages